This demonstration page uses our WeatherBlox Daily Observations layout. Learn more.

Left ArrowRight Arrow

Hourly Observations for February 9, 2022

Temp ( °F °C ) Dew Point ( °F °C ) Humidity (%) Winds ( mph kmh ) Pressure ( in mb ) Visibility ( mi km ) Precip ( " mm )
12:53 am 00:53 Clear 67 19.4 21 -6.1 17 17 N 13 20 30.27 1025 10 16 0.00 0.00
1:53 am 01:53 Clear 66 18.9 23 -5 19 19 N 9 15 30.28 1025 10 16 0.00 0.00
2:53 am 02:53 Clear 67 19.4 23 -5 19 19 undefined N/A 30.27 1025 10 16 0.00 0.00
3:53 am 03:53 Clear 66 18.9 23 -5 19 19 N 13 20 30.26 1025 10 16 0.00 0.00
4:53 am 04:53 Clear 66 18.9 23 -5 19 19 N 10 17 30.27 1025 10 16 0.00 0.00
5:53 am 05:53 Clear 66 18.9 23 -5 19 19 N 14 22 30.28 1025 10 16 0.00 0.00
6:53 am 06:53 Clear 67 19.4 24 -4.4 20 20 N 13 20 30.29 1026 10 16 0.00 0.00
7:53 am 07:53 Sunny 66 18.9 25 -3.9 21 21 N 22 35 30.30 1026 10 16 0.00 0.00
8:53 am 08:53 Sunny 69 20.6 27 -2.8 21 21 N 21 33 30.31 1026 10 16 0.00 0.00
9:53 am 09:53 Sunny 72 22.2 28 -2.2 19 19 N 28 44 30.27 1025 10 16 0.00 0.00
10:53 am 10:53 Sunny 74 23.3 30 -1.1 20 20 N 26 43 30.27 1025 10 16 0.00 0.00
11:53 am 11:53 Sunny 76 24.4 32 0 20 20 N 23 37 30.24 1024 10 16 0.00 0.00
12:53 pm 12:53 Sunny 79 26.1 34 1.1 20 20 NNE 20 31 30.22 1023 10 16 0.00 0.00
1:53 pm 13:53 Sunny 80 26.7 34 1.1 19 19 N 20 31 30.19 1022 10 16 0.00 0.00
2:53 pm 14:53 Sunny 81 27.2 35 1.7 19 19 NNE 21 33 30.17 1022 10 16 0.00 0.00
3:53 pm 15:53 Sunny 81 27.2 35 1.7 19 19 NNE 25 41 30.17 1022 10 16 0.00 0.00
4:53 pm 16:53 Sunny 79 26.1 36 2.2 21 21 NNE 15 24 30.17 1022 10 16 0.00 0.00
5:53 pm 17:53 Clear 76 24.4 36 2.2 23 23 N 14 22 30.19 1022 10 16 0.00 0.00
6:53 pm 18:53 Clear 75 23.9 37 2.8 25 25 N 17 28 30.20 1023 10 16 0.00 0.00
7:53 pm 19:53 Clear 74 23.3 38 3.3 27 27 N 17 28 30.21 1023 10 16 0.00 0.00
8:53 pm 20:53 Clear 72 22.2 38 3.3 29 29 N 14 22 30.23 1024 10 16 0.00 0.00
9:53 pm 21:53 Clear 72 22.2 38 3.3 29 29 N 15 24 30.24 1024 10 16 0.00 0.00
10:53 pm 22:53 Clear 72 22.2 37 2.8 28 28 NNW 13 20 30.24 1024 10 16 0.00 0.00
11:53 pm 23:53 Clear 71 21.7 37 2.8 29 29 N 15 24 30.23 1024 10 16 0.00 0.00

Powered by AerisWeather